[[{"header":{"parameterUnit":"m.s-1","parameterCategory":1,"la1":30.2992,"la2":30.254,"lo1":-89.0895,"lo2":-89.0443,"dy":0.0025,"dx":0.0025,"nx":19,"ny":19,"refTime":"2026-03-08T03:00:00:Z","depth":0,"parameterNumber":2,"parameterNumberName":"U-component_of_WINDS"},"data":[0,0,0,-1.3372,-1.3371,-1.3294,-1.3294,-1.3211,-1.321,0,0,0,0,0,0,0,0,0,0,0,-1.3407,-1.3407,-1.3372,-1.3371,-1.3294,-1.3294,-1.3211,-1.321,0,0,0,0,0,0,0,0,0,0,0,-1.3407,-1.3407,-1.3407,-1.3371,-1.3294,-1.3294,-1.3211,-1.3263,0,0,0,0,0,0,0,0,0,0,-1.3335,-1.3379,-1.3407,-1.3407,-1.337,-1.3294,-1.3294,-1.3265,-1.326,-1.3253,0,-1.3253,0,-1.323,-1.3206,-1.3206,0,0,0,-1.3361,-1.3384,-1.3352,-1.3407,-1.337,-1.3295,-1.3326,-1.3262,-1.3256,-1.3246,-1.3251,-1.3248,-1.3229,-1.3205,-1.3205,-1.3206,-1.3206,0,0,-1.3365,-1.3399,-1.3357,-1.3349,-1.3365,-1.3329,-1.3324,-1.3258,-1.3265,-1.3251,-1.3245,-1.3228,-1.3205,-1.3205,-1.3205,-1.3206,0,0,0,-1.3384,-1.3402,-1.3372,-1.3353,-1.3338,-1.3327,-1.3321,-1.3268,-1.3255,-1.3244,-1.3227,-1.3205,-1.3204,-1.3205,-1.3205,-1.3262,0,0,0,-1.3386,-1.3413,-1.3375,-1.3394,-1.334,-1.3303,-1.3333,-1.326,-1.3251,-1.3227,-1.3205,-1.3203,-1.3204,-1.3205,-1.3259,-1.3283,0,0,0,-1.3408,-1.3415,-1.3409,-1.3396,-1.3365,-1.3303,-1.3286,-1.3257,-1.3241,-1.3206,-1.3203,-1.3204,-1.3205,-1.3257,-1.3279,-1.3293,0,0,0,-1.344,-1.3459,-1.341,-1.3424,-1.3366,-1.3339,-1.3286,-1.3264,-1.324,-1.3204,-1.3204,-1.3205,-1.3256,-1.3276,-1.3291,-1.3312,-1.3324,0,0,-1.3482,-1.3465,-1.347,-1.3425,-1.3416,-1.3348,-1.3346,-1.3291,-1.3256,-1.3224,-1.3223,-1.326,-1.3278,-1.3293,-1.3379,-1.3389,0,0,0,-1.3495,-1.3499,-1.349,-1.347,-1.343,-1.3398,-1.334,-1.3319,-1.3291,-1.3247,-1.3268,-1.3278,-1.3285,-1.3293,-1.3301,-1.3305,-1.3211,-1.3211,-1.321,-1.3602,-1.3558,-1.3564,-1.3511,-1.3492,-1.3433,-1.3413,-1.3375,-1.3334,-1.3339,-1.333,-1.3388,-1.3399,-1.3405,-1.341,-1.3337,-1.3337,-1.3337,-1.3337,-1.366,-1.3659,-1.3606,-1.3593,-1.3545,-1.3532,-1.3476,-1.3447,-1.3427,-1.3391,-1.3395,-1.336,-1.3418,-1.3419,-1.3341,-1.3341,-1.334,-1.334,-1.3339,-1.3725,-1.3718,-1.3694,-1.3662,-1.3641,-1.3585,-1.3569,-1.3525,-1.3483,-1.3487,-1.3472,-1.3471,-1.3464,-1.3483,-1.3483,-1.3484,-1.3484,-1.3484,-1.3484,-1.3803,-1.3775,-1.3768,-1.3728,-1.371,-1.3681,-1.3621,-1.3601,-1.3568,-1.3537,-1.3536,-1.3495,-1.3432,-1.3417,-1.3487,-1.3486,-1.3486,-1.3486,-1.3486,-1.3879,-1.3855,-1.3845,-1.3827,-1.3776,-1.3759,-1.3703,-1.3667,-1.3643,-1.3637,-1.3594,-1.3555,-1.3533,-1.3526,-1.3514,-1.3604,-1.3604,-1.3604,-1.3604,-1.3934,-1.392,-1.39,-1.3874,-1.3844,-1.3793,-1.3781,-1.3735,-1.3683,-1.3665,-1.3645,-1.3625,-1.362,-1.3601,-1.3592,-1.358,-1.3685,-1.3686,-1.3686,-1.3978,-1.3959,-1.3959,-1.391,-1.3867,-1.3831,-1.3818,-1.3789,-1.3724,-1.3688,-1.365,-1.3647,-1.3613,-1.3605,-1.3569,-1.3556,-1.3532,0,0]},{"header":{"parameterUnit":"m.s-1","parameterCategory":1,"la1":30.2992,"la2":30.254,"lo1":-89.0895,"lo2":-89.0443,"dy":0.0025,"dx":0.0025,"nx":19,"ny":19,"refTime":"2026-03-08T03:00:00:Z","depth":0,"parameterNumber":3,"parameterNumberName":"V-component_of_WINDS"},"data":[0,0,0,1.3376,1.3376,1.3364,1.3364,1.335,1.335,0,0,0,0,0,0,0,0,0,0,0,1.3382,1.3381,1.3376,1.3376,1.3364,1.3364,1.335,1.335,0,0,0,0,0,0,0,0,0,0,0,1.3382,1.3381,1.3381,1.3376,1.3364,1.3364,1.335,1.3359,0,0,0,0,0,0,0,0,0,0,1.337,1.3376,1.3382,1.3381,1.3376,1.3364,1.3364,1.3359,1.3358,1.3357,0,1.3356,0,1.3353,1.3349,1.3349,0,0,0,1.3375,1.3377,1.3373,1.3381,1.3376,1.3364,1.3369,1.3359,1.3358,1.3356,1.3356,1.3355,1.3353,1.3349,1.3349,1.3346,1.3346,0,0,1.3376,1.338,1.3373,1.3372,1.3374,1.337,1.3369,1.3358,1.3358,1.3356,1.3355,1.3353,1.3349,1.3349,1.3346,1.3346,0,0,0,1.3378,1.338,1.3376,1.3373,1.337,1.3369,1.3368,1.3359,1.3357,1.3355,1.3352,1.3349,1.3349,1.3346,1.3346,1.3353,0,0,0,1.3379,1.3382,1.3377,1.3379,1.3371,1.3364,1.3369,1.3358,1.3356,1.3352,1.3349,1.3349,1.3346,1.3346,1.3352,1.3355,0,0,0,1.3382,1.3382,1.3381,1.3379,1.3374,1.3364,1.3362,1.3357,1.3355,1.3349,1.3349,1.3346,1.3346,1.3352,1.3355,1.3356,0,0,0,1.3386,1.3386,1.3381,1.3381,1.3374,1.3369,1.3362,1.3358,1.3354,1.3349,1.3346,1.3346,1.3352,1.3354,1.3356,1.3358,1.3359,0,0,1.3389,1.3387,1.3386,1.3381,1.3378,1.337,1.3368,1.336,1.3355,1.3349,1.3349,1.3353,1.3355,1.3356,1.3365,1.3366,0,0,0,1.3389,1.3388,1.3387,1.3383,1.3378,1.3373,1.3365,1.3362,1.3357,1.3353,1.3353,1.3354,1.3355,1.3356,1.3357,1.3357,1.3347,1.3347,1.3347,1.3398,1.3393,1.3392,1.3386,1.3383,1.3375,1.3372,1.3367,1.3362,1.3362,1.336,1.3366,1.3368,1.3368,1.3369,1.3361,1.3361,1.3361,1.3361,1.3402,1.3401,1.3396,1.3393,1.3387,1.3384,1.3377,1.3374,1.3371,1.3367,1.3367,1.3363,1.337,1.337,1.3361,1.3361,1.3361,1.3361,1.3361,1.3408,1.3407,1.3404,1.3399,1.3396,1.339,1.3387,1.3382,1.3377,1.3378,1.3376,1.3375,1.3375,1.3377,1.3377,1.3377,1.3377,1.3377,1.3377,1.3415,1.3412,1.341,1.3405,1.3403,1.34,1.3393,1.339,1.3386,1.3383,1.3383,1.3378,1.3371,1.337,1.3377,1.3377,1.3377,1.3377,1.3377,1.3421,1.3419,1.3417,1.3415,1.3409,1.3407,1.3401,1.3397,1.3394,1.3393,1.3389,1.3385,1.3382,1.3381,1.338,1.339,1.339,1.339,1.339,1.3426,1.3424,1.3422,1.3419,1.3416,1.3411,1.3409,1.3404,1.3399,1.3397,1.3395,1.3393,1.3392,1.339,1.3389,1.3387,1.3399,1.3399,1.3399,1.3429,1.3428,1.3427,1.3422,1.3418,1.3414,1.3413,1.341,1.3403,1.3399,1.3395,1.3395,1.3391,1.3391,1.3386,1.3385,1.3382,0,0]}]]